TimeMST,TemperatureF,Dew PointF,Humidity,Sea Level PressureIn,VisibilityMPH,Wind Direction,Wind SpeedMPH,Gust SpeedMPH,PrecipitationIn,Events,Conditions,WindDirDegrees,DateUTC
12:11 AM,30.4,16.9,57,30.01,10.0,NE,5.8,-,N/A,,Clear,40,2012-11-26 07:11:00
12:31 AM,30.2,17.6,60,30.00,10.0,North,5.8,-,N/A,,Clear,10,2012-11-26 07:31:00
12:51 AM,28.6,16.0,59,30.00,10.0,North,4.6,16.1,N/A,,Clear,360,2012-11-26 07:51:00
1:11 AM,26.6,16.2,65,30.02,10.0,Calm,Calm,-,N/A,,Clear,0,2012-11-26 08:11:00
1:31 AM,25.3,15.1,65,30.02,10.0,Calm,Calm,-,N/A,,Clear,0,2012-11-26 08:31:00
1:51 AM,22.3,14.0,71,30.03,10.0,Calm,Calm,-,N/A,,Clear,0,2012-11-26 08:51:00
2:11 AM,21.6,14.0,73,30.04,10.0,Calm,Calm,-,N/A,,Clear,0,2012-11-26 09:11:00
2:31 AM,22.6,15.6,74,30.05,10.0,Calm,Calm,-,N/A,,Clear,0,2012-11-26 09:31:00
2:51 AM,21.9,15.3,76,30.05,10.0,WSW,3.5,-,N/A,,Clear,240,2012-11-26 09:51:00
3:11 AM,22.8,17.8,81,30.04,10.0,West,5.8,-,N/A,,Clear,270,2012-11-26 10:11:00
3:51 AM,24.1,19.6,83,30.04,10.0,WNW,4.6,-,N/A,,Clear,290,2012-11-26 10:51:00
4:11 AM,23.9,19.0,82,30.05,10.0,West,4.6,-,N/A,,Clear,270,2012-11-26 11:11:00
4:31 AM,23.5,19.4,84,30.06,10.0,WSW,4.6,-,N/A,,Clear,240,2012-11-26 11:31:00
4:51 AM,24.3,19.0,80,30.06,10.0,WNW,3.5,-,N/A,,Clear,290,2012-11-26 11:51:00
5:11 AM,25.2,19.8,80,30.07,10.0,North,5.8,-,N/A,,Clear,10,2012-11-26 12:11:00
5:31 AM,25.2,16.9,71,30.09,10.0,North,6.9,-,N/A,,Clear,360,2012-11-26 12:31:00
5:51 AM,27.5,20.3,74,30.08,10.0,NNW,13.8,-,N/A,,Clear,340,2012-11-26 12:51:00
6:11 AM,26.6,21.6,81,30.09,10.0,NNW,12.7,19.6,N/A,,Clear,340,2012-11-26 13:11:00
6:31 AM,25.7,22.1,86,30.10,10.0,North,17.3,20.7,N/A,,Clear,350,2012-11-26 13:31:00
6:51 AM,25.2,23.0,91,30.12,10.0,NNW,17.3,25.3,N/A,,Clear,340,2012-11-26 13:51:00
7:11 AM,24.8,23.0,93,30.14,10.0,North,21.9,28.8,N/A,,Scattered Clouds,350,2012-11-26 14:11:00
7:31 AM,25.3,24.3,96,30.16,5.0,North,23.0,29.9,N/A,,Mostly Cloudy,350,2012-11-26 14:31:00
7:51 AM,26.1,24.4,94,30.17,7.0,North,25.3,34.5,N/A,,Overcast,350,2012-11-26 14:51:00
8:11 AM,26.6,24.8,93,30.19,7.0,North,24.2,33.4,N/A,,Overcast,350,2012-11-26 15:11:00
8:31 AM,27.3,25.7,94,30.21,5.0,North,21.9,29.9,N/A,,Overcast,360,2012-11-26 15:31:00
8:51 AM,27.7,25.7,92,30.22,7.0,North,25.3,32.2,N/A,,Overcast,360,2012-11-26 15:51:00
9:11 AM,29.1,25.2,85,30.24,10.0,North,20.7,29.9,N/A,,Overcast,360,2012-11-26 16:11:00
9:31 AM,30.0,25.7,84,30.25,10.0,North,19.6,24.2,N/A,,Overcast,360,2012-11-26 16:31:00
9:51 AM,28.4,25.9,90,30.26,5.0,North,20.7,28.8,N/A,,Overcast,360,2012-11-26 16:51:00
10:11 AM,30.0,25.3,83,30.25,10.0,North,25.3,29.9,N/A,,Overcast,360,2012-11-26 17:11:00
10:31 AM,30.9,24.3,76,30.26,10.0,North,18.4,25.3,N/A,,Overcast,360,2012-11-26 17:31:00
10:51 AM,31.3,23.9,74,30.26,10.0,North,18.4,27.6,N/A,,Mostly Cloudy,360,2012-11-26 17:51:00
11:11 AM,32.0,23.9,72,30.26,10.0,North,16.1,23.0,N/A,,Scattered Clouds,360,2012-11-26 18:11:00
11:31 AM,32.2,23.9,72,30.26,10.0,North,13.8,18.4,N/A,,Scattered Clouds,350,2012-11-26 18:31:00
11:51 AM,32.9,24.1,70,30.25,10.0,North,15.0,19.6,N/A,,Scattered Clouds,360,2012-11-26 18:51:00
12:11 PM,33.8,23.7,67,30.26,10.0,North,12.7,-,N/A,,Clear,10,2012-11-26 19:11:00
12:31 PM,34.0,23.2,65,30.25,10.0,North,9.2,-,N/A,,Clear,350,2012-11-26 19:31:00
12:51 PM,35.6,23.0,60,30.26,10.0,North,6.9,-,N/A,,Clear,360,2012-11-26 19:51:00
1:11 PM,34.2,23.0,64,30.24,10.0,NNE,4.6,-,N/A,,Mostly Cloudy,30,2012-11-26 20:11:00
1:31 PM,34.3,23.0,63,30.24,10.0,Calm,Calm,-,N/A,,Overcast,0,2012-11-26 20:31:00
1:51 PM,35.8,23.0,60,30.24,10.0,South,6.9,-,N/A,,Overcast,190,2012-11-26 20:51:00
2:11 PM,35.2,23.0,61,30.24,10.0,South,12.7,18.4,N/A,,Overcast,180,2012-11-26 21:11:00
2:31 PM,35.6,23.2,61,30.23,10.0,South,17.3,21.9,N/A,,Overcast,190,2012-11-26 21:31:00
2:51 PM,33.8,24.3,68,30.24,10.0,SSW,20.7,-,N/A,,Overcast,200,2012-11-26 21:51:00
3:11 PM,32.2,23.9,72,30.24,10.0,South,18.4,25.3,N/A,,Overcast,190,2012-11-26 22:11:00
3:31 PM,31.6,22.6,69,30.24,10.0,South,18.4,24.2,N/A,,Overcast,180,2012-11-26 22:31:00
3:51 PM,31.1,22.1,69,30.26,10.0,South,13.8,20.7,N/A,,Overcast,180,2012-11-26 22:51:00
4:11 PM,30.2,22.1,72,30.25,10.0,South,17.3,-,N/A,,Overcast,190,2012-11-26 23:11:00
4:31 PM,29.1,22.1,75,30.25,10.0,South,16.1,-,N/A,,Overcast,170,2012-11-26 23:31:00
4:51 PM,28.2,22.1,78,30.26,10.0,South,12.7,-,N/A,,Overcast,180,2012-11-26 23:51:00
5:11 PM,27.5,22.1,80,30.25,10.0,South,12.7,-,N/A,,Overcast,170,2012-11-27 00:11:00
5:31 PM,27.1,22.1,81,30.25,10.0,South,13.8,-,N/A,,Overcast,170,2012-11-27 00:31:00
5:51 PM,26.6,21.9,82,30.24,10.0,South,12.7,-,N/A,,Overcast,170,2012-11-27 00:51:00
6:11 PM,26.4,21.9,83,30.25,10.0,South,8.1,-,N/A,,Overcast,180,2012-11-27 01:11:00
6:31 PM,26.2,22.1,84,30.25,10.0,South,11.5,-,N/A,,Overcast,180,2012-11-27 01:31:00
6:51 PM,25.9,22.1,86,30.24,10.0,South,9.2,-,N/A,,Overcast,190,2012-11-27 01:51:00
7:11 PM,25.7,22.5,88,30.25,10.0,South,11.5,-,N/A,,Overcast,190,2012-11-27 02:11:00
7:31 PM,25.5,22.6,89,30.25,10.0,SSW,9.2,-,N/A,,Overcast,200,2012-11-27 02:31:00
7:51 PM,25.0,22.6,91,30.26,10.0,SSW,11.5,-,N/A,,Overcast,200,2012-11-27 02:51:00
8:11 PM,24.8,22.8,92,30.25,10.0,SSW,12.7,-,N/A,,Overcast,210,2012-11-27 03:11:00
8:31 PM,24.6,22.6,92,30.26,10.0,SSW,11.5,-,N/A,,Overcast,210,2012-11-27 03:31:00
8:51 PM,24.4,22.6,93,30.27,10.0,SSW,10.4,-,N/A,,Overcast,200,2012-11-27 03:51:00
9:11 PM,23.7,22.1,94,30.27,10.0,SSW,9.2,-,N/A,,Overcast,200,2012-11-27 04:11:00
9:51 PM,23.4,22.1,95,30.27,7.0,SW,8.1,-,N/A,,Overcast,220,2012-11-27 04:51:00
10:11 PM,23.5,22.8,97,30.27,4.0,SSW,8.1,-,N/A,,Overcast,210,2012-11-27 05:11:00
10:31 PM,23.5,22.8,97,30.27,4.0,SSW,8.1,-,N/A,,Overcast,210,2012-11-27 05:31:00
10:51 PM,23.2,22.5,97,30.26,4.0,SW,5.8,-,N/A,,Overcast,220,2012-11-27 05:51:00
11:11 PM,23.0,22.6,99,30.26,2.0,SSW,6.9,-,N/A,,Overcast,210,2012-11-27 06:11:00
11:31 PM,23.0,22.8,99,30.26,0.8,SSW,5.8,-,N/A,,Overcast,210,2012-11-27 06:31:00
11:51 PM,23.0,22.8,99,30.26,0.2,SW,8.1,-,N/A,Fog,Light Freezing Fog,220,2012-11-27 06:51:00